Flag for Germany Weather past 2 weeks in Ingolstadt, Bavaria, Germany

Now
54 °F

Cool.


Feels Like: 54 °F
Forecast: 46 / 65 °F
Wind: 2 mph from Southwest

Location: Ingolstadt Airport

Current Time: May 23, 2015 at 1:18:10 AM

Latest Report: May 23, 2015 at 12:20 AM


Visibility: 2 mi

Pressure: 30.15 "Hg

Humidity: 77%

Dew point: 46 °F

Location of IngolstadtLocation

Historic Weather in Ingolstadt — Graph

°F

Ingolstadt temperature yesterday

Maximum temperature yesterday: 61 °F (at 2:20 PM)
Minimum temperature yesterday: 41 °F (at 6:20 AM)
Average temperature yesterday: 53 °F

Past Weeks' High & Low Weather Summary

 TemperatureHumidityPressure
High81 °F (May 12, 3:20 PM)100% (May 10, 4:20 AM)30.36 "Hg (May 10, 4:20 AM)
Low41 °F (May 22, 6:20 AM)32% (May 12, 4:20 PM)29.74 "Hg (May 18, 6:20 PM)
Average58 °F72%30.08 "Hg
* Reported May 7 11:20 PM — May 22 11:20 PM, Ingolstadt, Weather by CustomWeather, © 2015

Note: Actual official high and low records may vary slightly from our data, if they occured in-between our weather recording intervals... More about our weather records

Advertising

Ingolstadt weather history for previous 24 hours

 ConditionsComfort  
Time TempWeatherWind HumidityBarometerVisibility
11:20 PM
Fri, May 22
54 °FCool.2 mph77%30.15 "Hg2 mi
10:20 PM55 °FCool.2 mph63%30.18 "Hg2 mi
9:20 PM57 °FRefreshingly cool.2 mph51%30.15 "Hg2 mi
8:20 PM59 °FPartly sunny.3 mph45%30.15 "HgN/A
7:20 PM61 °FBroken clouds.9 mph39%30.15 "HgN/A
6:20 PM61 °FBroken clouds.6 mph42%30.15 "HgN/A
5:20 PM61 °FBroken clouds.5 mph42%30.18 "HgN/A
4:20 PM61 °FBroken clouds.7 mph42%30.18 "HgN/A
3:20 PM61 °FPartly sunny.6 mph42%30.21 "HgN/A
2:20 PM61 °FPartly sunny.7 mph42%30.21 "HgN/A
1:20 PM59 °FPartly sunny.8 mph45%30.24 "HgN/A
1:00 PM59 °FPartly sunny.7 mph48%30.24 "HgN/A
12:20 PM59 °FPartly sunny.8 mph48%30.27 "HgN/A
11:20 AM57 °FPartly sunny.10 mph55%30.27 "HgN/A
10:20 AM55 °FPartly sunny.7 mph67%30.27 "HgN/A
9:20 AM52 °FScattered clouds.8 mph72%30.30 "HgN/A
8:20 AM48 °FPassing clouds.2 mph82%30.30 "HgN/A
8:01 AM46 °FFog.2 mph93%30.30 "Hg5 mi
7:20 AM43 °FFog.No wind100%30.30 "Hg1 mi
7:00 AM43 °FFog.1 mph100%30.30 "Hg1 mi
6:20 AM41 °FFog.1 mph100%30.27 "Hg0 mi
5:20 AM43 °FFog.1 mph93%30.30 "Hg0 mi
4:20 AM43 °FQuite cool.No wind100%30.30 "Hg0 mi
3:20 AM43 °FQuite cool.2 mph93%30.30 "Hg0 mi
2:20 AM45 °FQuite cool.2 mph100%30.30 "Hg1 mi
1:20 AM48 °FCool.2 mph94%30.30 "Hg2 mi
Weather by CustomWeather, © 2015

See weather overviewHow to use our weather pages